FW5910 Weather Reports


time (UTC)temp
F
wind
direction
speed
knots
gust
knots
rain 1hr
in
rain 24hr
in
rain mn
in
humidity
%
barometer
mb
20260507163932 53 182 0.9 2.6 0.02 0.09 0.08 75 1013.8
20260507163432 53 0 2.6 5.2 0.02 0.09 0.08 74 1013.8
20260507162931 52 136 1.7 5.2 0.02 0.09 0.08 74 1013.9
20260507161932 52 28 0.0 0.0 0.03 0.09 0.08 76 1014.0
20260507161432 52 26 0.0 0.0 0.03 0.09 0.08 75 1014.1
20260507160432 52 71 0.0 0.9 0.03 0.09 0.08 74 1013.9
20260507155929 51 48 0.0 1.7 0.03 0.09 0.08 74 1013.9
20260507155430 52 48 0.0 1.7 0.02 0.08 0.07 75 1013.9
20260507154930 51 48 0.0 1.7 0.02 0.08 0.07 75 1013.9
20260507154429 51 46 0.0 0.9 0.01 0.07 0.06 75 1013.9
20260507153930 51 46 0.0 0.9 0.01 0.07 0.06 74 1013.8
20260507153429 51 47 0.0 0.9 0.01 0.07 0.06 73 1013.8
20260507152929 51 48 0.0 0.9 0.01 0.07 0.06 72 1013.6
20260507152431 51 47 0.0 0.9 0.01 0.07 0.06 72 1013.6
20260507151931 51 47 0.0 0.0 0.00 0.06 0.05 71 1013.6
20260507151428 51 47 0.0 0.9 0.00 0.06 0.05 70 1013.6
20260507150930 51 46 0.0 1.7 0.00 0.06 0.05 71 1013.4
20260507150429 51 47 0.0 1.7 0.00 0.06 0.05 71 1013.6
20260507145933 51 49 0.0 0.9 0.00 0.06 0.05 72 1013.4
20260507145431 51 49 0.0 1.7 0.00 0.06 0.05 72 1013.4
20260507144931 51 50 0.0 1.7 0.00 0.06 0.05 72 1013.4
20260507144431 51 49 0.0 1.7 0.00 0.06 0.05 72 1013.4
20260507143929 51 61 0.0 0.9 0.00 0.06 0.05 93 1013.4
20260507143429 51 63 0.0 0.9 0.00 0.06 0.05 93 1013.2
20260507142930 51 66 0.0 0.9 0.00 0.06 0.05 93 1013.1
20260507142429 51 67 0.0 0.9 0.00 0.06 0.05 93 1013.0
20260507141930 51 67 0.0 0.9 0.00 0.06 0.05 94 1012.9
20260507141427 51 67 0.0 0.0 0.00 0.06 0.05 94 1012.8
20260507140927 50 67 0.0 0.0 0.00 0.06 0.05 93 1012.9
20260507135924 50 67 0.0 0.9 0.00 0.06 0.05 94 1012.8
20260507134922 50 67 0.0 0.9 0.00 0.06 0.05 94 1012.8
20260507133918 50 67 0.0 0.9 0.00 0.06 0.05 94 1012.6
20260507133416 50 67 0.0 0.9 0.00 0.06 0.05 94 1012.7
20260507132915 50 67 0.0 0.9 0.00 0.06 0.05 94 1012.6
20260507131914 49 202 0.0 0.9 0.00 0.06 0.05 95 1012.2
20260507131413 49 203 0.0 0.9 0.00 0.06 0.05 95 1012.1
20260507130909 49 148 0.0 0.0 0.00 0.06 0.05 95 1012.1
20260507130407 49 148 0.0 0.0 0.00 0.06 0.05 95 1012.0
20260507125907 49 148 0.0 0.9 0.00 0.06 0.05 95 1012.0
20260507125405 48 148 0.0 0.9 0.00 0.06 0.05 95 1012.0
20260507124903 48 148 0.0 0.9 0.00 0.06 0.05 95 1012.0
20260507124404 48 40 0.0 0.0 0.00 0.06 0.05 95 1012.2
20260507123906 48 40 0.0 0.0 0.00 0.06 0.05 95 1012.0
20260507123403 48 40 0.0 0.9 0.00 0.06 0.05 95 1011.9
20260507122903 48 39 0.0 0.9 0.00 0.06 0.05 95 1011.9
20260507122404 48 42 0.0 0.9 0.00 0.06 0.05 95 1012.0
20260507121904 48 355 0.0 0.0 0.00 0.06 0.05 95 1011.8
20260507120902 48 299 0.0 0.9 0.00 0.06 0.05 94 1011.5
20260507115903 49 102 0.0 0.9 0.00 0.06 0.05 95 1011.5
20260507115402 48 214 0.0 0.9 0.00 0.06 0.05 94 1011.5
20260507114903 48 221 0.0 0.9 0.00 0.06 0.05 94 1011.5
20260507114400 48 350 0.0 0.9 0.00 0.06 0.05 94 1011.6
20260507113350 49 350 0.0 0.9 0.00 0.06 0.05 94 1011.7
20260507112844 49 249 0.0 0.9 0.00 0.06 0.05 95 1011.6
20260507112337 49 249 0.0 0.0 0.00 0.06 0.05 94 1011.5
20260507111335 48 249 0.0 0.9 0.00 0.06 0.05 95 1011.3
20260507110334 48 249 0.0 0.9 0.00 0.06 0.05 94 1011.3
20260507105833 48 238 0.0 0.9 0.00 0.06 0.05 94 1011.3
20260507105333 48 238 0.0 0.9 0.00 0.06 0.05 93 1011.3
20260507104835 49 152 0.0 0.9 0.00 0.06 0.05 92 1011.3
20260507104332 49 151 0.0 0.9 0.00 0.06 0.05 94 1011.4
20260507103833 49 91 0.0 0.9 0.00 0.06 0.05 94 1011.4
20260507103331 49 91 0.0 0.9 0.00 0.06 0.05 94 1011.5
20260507102835 49 86 0.0 0.9 0.00 0.06 0.05 93 1011.5
20260507102332 48 337 0.0 0.9 0.00 0.06 0.05 93 1011.4
20260507101834 48 280 0.0 0.9 0.00 0.06 0.05 91 1011.3
20260507101331 49 234 0.0 0.9 0.00 0.06 0.05 90 1011.2
20260507100832 50 161 0.0 0.9 0.00 0.06 0.05 91 1011.0
20260507100329 50 146 0.0 1.7 0.00 0.06 0.05 90 1011.0
20260507095330 49 118 0.0 2.6 0.00 0.06 0.05 91 1011.0
20260507094833 50 224 0.9 2.6 0.00 0.06 0.05 91 1011.0
20260507094330 50 257 0.0 1.7 0.00 0.06 0.05 91 1010.9
20260507093836 51 96 0.0 1.7 0.00 0.06 0.05 92 1011.0
20260507093333 50 96 0.9 1.7 0.00 0.06 0.05 91 1011.3
20260507092835 50 206 0.9 1.7 0.00 0.06 0.05 91 1011.4
20260507092331 51 163 0.0 1.7 0.00 0.06 0.05 91 1011.4
20260507091834 51 273 0.9 3.5 0.00 0.06 0.05 91 1011.3
20260507091332 51 250 0.9 3.5 0.00 0.06 0.05 91 1011.4
20260507090834 50 339 0.9 1.7 0.00 0.06 0.05 91 1011.3
20260507090332 50 234 0.9 1.7 0.00 0.06 0.05 91 1011.0
20260507085833 51 275 0.9 3.5 0.00 0.06 0.05 92 1011.0
20260507085329 51 232 1.7 3.5 0.00 0.06 0.05 91 1011.2
20260507084831 51 224 0.9 1.7 0.00 0.06 0.05 92 1011.3
20260507083832 51 173 0.0 0.9 0.00 0.06 0.05 91 1011.5
20260507083329 51 159 0.0 0.0 0.00 0.06 0.05 92 1011.5
20260507082830 51 169 0.0 0.0 0.00 0.06 0.05 92 1011.5
20260507082323 51 211 0.0 0.0 0.00 0.06 0.05 92 1011.4
20260507081312 51 87 0.9 2.6 0.00 0.06 0.05 92 1011.2
20260507080812 51 87 0.9 2.6 0.01 0.06 0.05 91 1011.3
20260507080311 51 221 0.9 2.6 0.02 0.06 0.05 92 1011.5
20260507075811 51 239 0.9 2.6 0.04 0.06 0.05 92 1011.5
20260507074811 51 165 0.0 0.9 0.05 0.06 0.05 91 1010.9
20260507074312 51 198 0.0 1.7 0.05 0.06 0.05 90 1011.0
20260507073812 51 199 0.0 1.7 0.05 0.06 0.05 90 1011.0
20260507073311 51 68 0.9 2.6 0.05 0.06 0.05 91 1011.2
20260507072811 51 77 0.9 2.6 0.05 0.06 0.05 89 1011.0
20260507072311 52 215 0.9 3.5 0.05 0.06 0.05 90 1011.2
20260507071807 52 77 1.7 3.5 0.05 0.06 0.05 89 1011.2
20260507071306 52 109 1.7 3.5 0.04 0.05 0.04 88 1011.3
20260507070805 53 92 0.0 2.6 0.04 0.05 0.04 87 1011.3
20260507070305 53 159 0.0 0.9 0.02 0.03 0.02 86 1011.3
20260507065803 54 248 2.6 6.1 0.01 0.02 0.01 84 1011.2
20260507065300 54 96 2.6 6.1 0.00 0.01 0.00 81 1011.0
20260507064802 54 93 0.9 5.2 0.00 0.01 0.00 79 1011.0
20260507064303 54 163 0.9 3.5 0.00 0.01 0.00 80 1011.3
20260507063801 54 257 0.9 3.5 0.00 0.01 0.00 82 1011.4
20260507063302 54 259 0.9 4.3 0.00 0.01 0.00 81 1010.7
20260507062802 54 323 0.9 4.3 0.00 0.01 0.00 82 1010.4
20260507062301 55 219 0.0 0.9 0.00 0.01 0.00 79 1010.1
20260507061801 55 219 0.0 0.9 0.00 0.01 0.00 75 1010.2
20260507061301 55 219 0.0 1.7 0.00 0.01 0.00 74 1010.2
20260507060801 55 218 0.0 1.7 0.00 0.01 0.00 76 1010.2
20260507060302 55 193 0.0 0.9 0.00 0.01 0.00 76 1010.2
20260507055803 55 215 0.0 2.6 0.00 0.01 0.01 75 1010.1
20260507055300 55 157 0.9 2.6 0.00 0.01 0.01 74 1010.1
20260507054802 55 107 0.0 2.6 0.01 0.01 0.01 75 1010.1
20260507054301 54 153 0.0 0.9 0.01 0.01 0.01 77 1010.1
20260507053801 55 222 0.9 5.2 0.01 0.01 0.01 78 1010.2
20260507053301 56 232 2.6 7.0 0.01 0.01 0.01 75 1010.2
20260507052801 55 91 3.5 7.0 0.01 0.01 0.01 74 1010.3
20260507052306 55 49 2.6 8.7 0.01 0.01 0.01 78 1010.2
20260507051808 53 84 1.7 8.7 0.01 0.01 0.01 81 1010.3
20260507051301 53 200 1.7 3.5 0.01 0.01 0.01 84 1010.6
20260507050802 53 98 0.9 3.5 0.01 0.01 0.01 83 1011.2
20260507050301 53 112 0.9 1.7 0.01 0.01 0.01 86 1011.3
20260507045802 53 150 0.9 2.6 0.01 0.01 0.01 83 1011.3
20260507045301 54 279 0.9 5.2 0.01 0.01 0.00 83 1011.3
20260507044801 55 282 3.5 8.7 0.00 0.00 0.00 79 1011.3
20260507044301 55 45 3.5 8.7 0.00 0.00 0.00 78 1011.2
20260507043801 56 67 1.7 7.8 0.00 0.00 0.00 78 1011.3
20260507043302 56 323 0.0 3.5 0.00 0.00 0.00 75 1010.1
20260507042801 56 273 0.0 0.9 0.00 0.00 0.00 74 1009.3
20260507042301 56 273 0.0 0.9 0.00 0.00 0.00 75 1009.3
20260507041804 56 273 0.0 0.9 0.00 0.00 0.00 74 1009.5
20260507041303 56 273 0.0 0.9 0.00 0.00 0.00 73 1009.6
20260507040803 56 273 0.0 0.9 0.00 0.00 0.00 74 1009.6
20260507040301 56 276 0.0 1.7 0.00 0.00 0.00 74 1009.6
20260507035801 57 108 0.0 1.7 0.00 0.00 0.00 74 1009.5
20260507035301 57 45 0.0 0.9 0.00 0.00 0.00 71 1009.6
20260507034757 57 123 0.0 0.9 0.00 0.00 0.00 67 1009.5
20260507034251 57 252 0.0 0.9 0.00 0.00 0.00 72 1009.5
20260507033744 58 161 0.0 0.9 0.00 0.00 0.00 70 1009.5
20260507033238 58 53 0.0 0.9 0.00 0.00 0.00 68 1009.6
20260507032732 58 55 0.0 1.7 0.00 0.00 0.00 68 1009.5
20260507032230 58 55 0.0 1.7 0.00 0.00 0.00 68 1009.6
20260507031731 58 254 0.0 0.9 0.00 0.00 0.00 65 1009.6
20260507031230 59 254 0.0 0.9 0.00 0.00 0.00 66 1009.5
20260507030729 60 254 0.0 0.9 0.00 0.00 0.00 63 1009.5
20260507030230 60 254 0.0 0.9 0.00 0.00 0.00 64 1009.4
20260507025730 60 254 0.0 0.9 0.00 0.00 0.00 63 1009.3
20260507025229 61 254 0.0 0.9 0.00 0.00 0.00 63 1009.3
20260507024730 61 285 0.0 0.9 0.00 0.00 0.00 63 1009.2
20260507024230 61 285 0.0 0.9 0.00 0.00 0.00 62 1009.2
20260507023730 61 228 0.0 0.9 0.00 0.00 0.00 57 1009.1
20260507023231 61 227 0.0 0.9 0.00 0.00 0.00 59 1009.2
20260507022729 61 228 0.0 0.9 0.00 0.00 0.00 61 1009.2
20260507022232 62 223 0.0 0.9 0.00 0.00 0.00 59 1009.1
20260507021733 62 252 0.0 0.9 0.00 0.00 0.00 60 1009.2
20260507021231 63 244 0.0 0.9 0.00 0.00 0.00 56 1009.1
20260507020729 63 152 0.0 0.0 0.00 0.00 0.00 54 1009.1
20260507020230 63 152 0.0 0.9 0.00 0.00 0.00 54 1009.1
20260507015729 63 152 0.0 0.9 0.00 0.00 0.00 56 1009.1
20260507015230 63 152 0.0 0.9 0.00 0.00 0.00 54 1009.2
20260507014730 64 69 0.0 0.9 0.00 0.00 0.00 55 1009.3
20260507014232 64 68 0.0 0.9 0.00 0.00 0.00 56 1009.4
20260507013729 64 69 0.9 2.6 0.00 0.00 0.00 56 1009.4
20260507013230 64 63 0.9 2.6 0.00 0.00 0.00 54 1009.5
20260507012729 65 35 0.0 1.7 0.00 0.00 0.00 51 1009.5
20260507011729 66 223 0.0 0.9 0.00 0.00 0.00 49 1009.4
20260507011229 66 223 0.0 0.9 0.00 0.00 0.00 49 1009.3
20260507010729 67 223 0.0 0.9 0.00 0.00 0.00 52 1009.3
20260507010230 67 223 0.0 0.9 0.00 0.00 0.00 49 1009.3
20260507005229 67 223 0.0 0.0 0.00 0.00 0.00 46 1009.4
20260507004729 68 223 0.0 0.9 0.00 0.00 0.00 46 1009.4
20260507004230 67 223 0.0 0.9 0.00 0.00 0.00 46 1009.5
20260507003728 67 223 0.0 0.9 0.00 0.00 0.00 45 1009.5
20260507003229 68 219 0.0 0.9 0.00 0.00 0.00 47 1009.5
20260507002729 68 218 0.0 0.9 0.00 0.00 0.00 45 1009.5
20260507001729 67 207 0.9 2.6 0.00 0.00 0.00 44 1009.7
20260507001230 68 229 0.0 2.6 0.00 0.00 0.00 44 1009.7
20260507000729 68 259 0.0 3.5 0.00 0.00 0.00 43 1009.8
20260507000229 69 212 0.9 3.5 0.00 0.00 0.00 43 1009.7
20260506235729 69 169 0.9 2.6 0.00 0.00 0.00 43 1009.7
20260506235229 69 313 0.9 2.6 0.00 0.00 0.00 40 1009.6
20260506234730 70 234 0.9 2.6 0.00 0.00 0.00 39 1009.6
20260506234229 71 159 0.9 2.6 0.00 0.00 0.00 40 1009.6
20260506233729 71 234 0.9 2.6 0.00 0.00 0.00 38 1009.7
20260506232729 71 286 1.7 5.2 0.00 0.00 0.00 40 1009.7
20260506232231 71 223 0.9 5.2 0.00 0.00 0.00 37 1009.6
20260506231226 71 241 0.9 4.3 0.00 0.00 0.00 38 1009.7
20260506230726 71 229 1.7 4.3 0.00 0.00 0.00 38 1009.7
20260506230226 71 275 1.7 4.3 0.00 0.00 0.00 38 1009.7
20260506225725 71 269 1.7 4.3 0.00 0.00 0.00 38 1009.8
20260506225226 71 229 0.9 4.3 0.00 0.00 0.00 39 1009.8
20260506224726 70 184 0.9 2.6 0.00 0.00 0.00 38 1010.0
20260506223724 70 153 0.9 3.5 0.00 0.00 0.00 39 1010.1
20260506223224 69 244 1.7 5.2 0.00 0.00 0.00 39 1010.2
20260506222722 70 223 1.7 5.2 0.00 0.00 0.00 38 1010.3
20260506222221 70 254 1.7 5.2 0.00 0.00 0.00 36 1010.5
20260506221718 70 239 1.7 5.2 0.00 0.00 0.00 37 1010.5
20260506221219 70 274 1.7 5.2 0.00 0.00 0.00 37 1010.5
20260506220214 71 115 1.7 3.5 0.00 0.00 0.00 35 1010.7
20260506215712 70 229 1.7 5.2 0.00 0.00 0.00 36 1010.8
20260506214712 70 228 1.7 4.3 0.00 0.00 0.00 36 1011.0
20260506214211 70 192 1.7 6.1 0.00 0.00 0.00 33 1011.2
20260506213212 69 270 1.7 6.1 0.00 0.00 0.00 35 1011.5
20260506212713 68 209 2.6 7.0 0.00 0.00 0.00 35 1011.6
20260506212213 69 242 2.6 7.8 0.00 0.00 0.00 34 1011.7
20260506211708 70 175 1.7 7.8 0.00 0.00 0.00 34 1011.8
20260506205709 69 193 1.7 6.1 0.00 0.00 0.00 33 1012.0
20260506205209 69 244 1.7 7.0 0.00 0.00 0.00 36 1012.0
20260506204708 68 209 2.6 9.6 0.00 0.00 0.00 35 1012.2
20260506204208 67 236 2.6 9.6 0.00 0.00 0.00 35 1012.4
20260506203708 68 200 1.7 6.1 0.00 0.00 0.00 33 1012.4
20260506203204 68 202 1.7 6.1 0.00 0.00 0.00 35 1012.5
20260506202703 68 156 1.7 7.0 0.00 0.00 0.00 35 1012.6
20260506202205 68 220 1.7 7.0 0.00 0.00 0.00 35 1012.6
20260506201704 68 161 1.7 7.0 0.00 0.00 0.00 35 1012.6
20260506200704 67 325 1.7 5.2 0.00 0.00 0.00 34 1012.8
20260506200205 68 286 1.7 5.2 0.00 0.00 0.00 35 1012.8
20260506195705 68 202 1.7 5.2 0.00 0.00 0.00 34 1012.9
20260506195205 68 200 0.9 5.2 0.00 0.00 0.00 33 1013.0
20260506194704 67 171 0.9 3.5 0.00 0.00 0.00 34 1013.1
20260506194204 66 282 1.7 3.5 0.00 0.00 0.00 34 1013.1
20260506192705 67 67 0.9 4.3 0.00 0.00 0.00 32 1013.4
20260506190703 64 238 1.7 6.1 0.00 0.00 0.00 36 1013.7
20260506190201 65 223 1.7 6.1 0.00 0.00 0.00 36 1013.8
20260506185702 64 232 1.7 6.1 0.00 0.00 0.00 37 1013.8
20260506185202 63 225 1.7 6.1 0.00 0.00 0.00 36 1013.9
20260506184702 63 215 1.7 4.3 0.00 0.00 0.00 35 1014.2
20260506184201 64 161 0.9 4.3 0.00 0.00 0.00 36 1014.2
20260506183202 63 239 1.7 6.1 0.00 0.00 0.00 36 1014.5
20260506182704 63 154 0.9 5.2 0.00 0.00 0.00 37 1014.5
20260506182205 62 326 0.9 3.5 0.00 0.00 0.00 38 1014.6
20260506181703 61 196 0.9 3.5 0.00 0.00 0.00 40 1014.8
20260506181203 61 106 0.9 3.5 0.00 0.00 0.00 36 1014.9
20260506180703 62 263 1.7 3.5 0.00 0.00 0.00 38 1014.9
20260506180204 62 336 0.9 4.3 0.00 0.00 0.00 39 1014.8
20260506175703 60 284 1.7 4.3 0.00 0.00 0.00 37 1015.0
20260506175204 60 168 1.7 5.2 0.00 0.00 0.00 36 1015.0
20260506174705 60 292 0.9 5.2 0.00 0.00 0.00 37 1015.1
20260506174203 60 79 0.9 3.5 0.00 0.00 0.00 38 1015.2
20260506173703 59 213 0.9 3.5 0.00 0.00 0.00 39 1015.2
20260506172706 59 83 1.7 6.1 0.00 0.00 0.00 38 1015.2
20260506172204 58 68 1.7 6.1 0.00 0.00 0.00 41 1015.3
20260506171203 59 232 0.9 3.5 0.00 0.00 0.00 41 1015.4
20260506170201 58 223 0.9 7.0 0.00 0.00 0.00 39 1015.4
20260506165149 57 238 0.9 4.3 0.00 0.00 0.00 39 1015.5
20260506164643 57 229 0.9 2.6 0.00 0.00 0.00 39 1015.5